This is the latest recevied weather packets stored in our database for station/object GOLDWX. If no packets are shown the sender has not sent any weather packets the latest 10 day(s).
| Time | Temp. | Humidity | Pressure | Rain* | Wind** | Luminosity | Snow |
|---|---|---|---|---|---|---|---|
| 1777685057 | 20.56° C | 16% | 1015.4 hPa | 0 mm | - | - | - |
| 1777684455 | 21.11° C | 15% | 1015.3 hPa | 0 mm | - | - | - |
| 1777684154 | 21.11° C | 15% | 1015.4 hPa | 0 mm | - | - | - |
| 1777683552 | 21.67° C | 14% | 1015.4 hPa | 0 mm | - | - | - |
| 1777683252 | 22.22° C | 14% | 1015.3 hPa | 0 mm | - | - | - |
| 1777682650 | 22.22° C | 15% | 1015.2 hPa | 0 mm | - | - | - |
| 1777682349 | 22.22° C | 15% | 1015.3 hPa | 0 mm | - | - | - |
| 1777681747 | 22.22° C | 15% | 1015.4 hPa | 0 mm | - | - | - |
| 1777681447 | 22.22° C | 15% | 1015.4 hPa | 0 mm | - | - | - |
| 1777680844 | 22.22° C | 14% | 1015.5 hPa | 0 mm | - | - | - |
| 1777680543 | 22.22° C | 14% | 1015.4 hPa | 0 mm | - | - | - |
| 1777679941 | 22.22° C | 15% | 1015.5 hPa | 0 mm | - | - | - |
| 1777679641 | 22.22° C | 14% | 1015.6 hPa | 0 mm | - | - | - |
| 1777679039 | 22.78° C | 14% | 1015.5 hPa | 0 mm | - | - | - |
| 1777678738 | 22.78° C | 14% | 1015.5 hPa | 0 mm | - | - | - |
| 1777678136 | 22.78° C | 14% | 1015.6 hPa | 0 mm | - | - | - |
| 1777677836 | 22.78° C | 15% | 1015.6 hPa | 0 mm | - | - | - |
| 1777677234 | 23.33° C | 14% | 1015.6 hPa | 0 mm | - | - | - |
| 1777676933 | 22.78° C | 15% | 1015.6 hPa | 0 mm | - | - | - |
| 1777676332 | 22.78° C | 14% | 1015.7 hPa | 0 mm | - | - | - |
| 1777676031 | 23.33° C | 14% | 1015.8 hPa | 0 mm | - | - | - |
| 1777675429 | 23.89° C | 13% | 1015.9 hPa | 0 mm | - | - | - |
| 1777675128 | 24.44° C | 15% | 1016 hPa | 0 mm | - | - | - |
| 1777674527 | 23.89° C | 13% | 1016 hPa | 0 mm | - | - | - |
| 1777674227 | 24.44° C | 14% | 1016.2 hPa | 0 mm | - | - | - |
* Rain since midnight (hover to see other rain measurements)
** Current wind speed in m/s (hover to see current wind gust speed)